This demonstration page uses our WeatherBlox Daily Observations layout. Learn more.

Left ArrowRight Arrow

Hourly Observations for February 12, 2019

Temp ( °F °C ) Dew Point ( °F °C ) Humidity (%) Winds ( mph kmh ) Pressure ( in mb ) Visibility ( mi km ) Precip ( " mm )
12:51 am 00:51 Cloudy with Mist and Fog 52 11 52 11 100 100 NNW 3 6 30.02 1016 3 4 0.00 0.00
12:53 am 00:53 Cloudy with Mist and Fog 52 11.1 52 11.1 100 100 Calm 30.00 1016 3 4 0.00 0.00
1:00 am 01:00 Cloudy with Mist and Fog 53 11.7 53 11.7 100 100 Calm 30.01 1016 5 8 0.00 0.00
1:25 am 01:25 Cloudy with Mist and Fog 53 11.7 53 11.7 100 100 Calm 30.00 1016 3 4 0.00 0.00
1:51 am 01:51 Cloudy with Mist and Fog 52 11 52 11 100 100 Calm 30.01 1016 1 2 0.00 0.00
1:53 am 01:53 Cloudy with Mist and Fog 52 11.1 52 11.1 100 100 Calm 29.99 1016 1 2 0.00 0.00
2:53 am 02:53 Cloudy with Mist and Fog 53 11.7 53 11.7 100 100 Calm 29.97 1015 1 1 0.00 0.00
3:02 am 03:02 Cloudy with Mist and Fog 53 11.7 53 11.7 100 100 Calm 29.97 1015 1 2 0.00 0.00
3:42 am 03:42 Cloudy with Mist and Fog 54 12.2 54 12.2 100 100 N 3 6 29.96 1015 1 1 0.00 0.00
3:51 am 03:51 Mostly Cloudy with Fog 54 12 54 12 100 100 Calm 29.96 1015 1 1 0.00 0.00
3:53 am 03:53 Mostly Cloudy with Fog 53 11.7 53 11.7 100 100 Calm 29.95 1014 1 1 0.00 0.00
4:12 am 04:12 Mostly Cloudy with Light Rain 54 12.2 54 12.2 100 100 Calm 29.95 1014 1 1 0.00 0.03
4:24 am 04:24 Cloudy with Mist and Fog 55 12.8 55 12.8 100 100 Calm 29.94 1014 1 2 0.00 0.03
4:31 am 04:31 Cloudy with Mist and Fog 57 13.9 57 13.9 100 100 SSE 3 6 29.94 1014 3 5 0.00 0.03
4:53 am 04:53 Cloudy with Mist and Fog 57 13.9 57 13.9 100 100 SSE 7 11 29.92 1013 4 6 0.01 0.25
5:14 am 05:14 Cloudy with Rain 57 13.9 57 13.9 100 100 S 3 6 29.93 1013 3 5 0.01 0.25
5:19 am 05:19 Cloudy with Heavy Rain 57 13.9 57 13.9 100 100 VRB 3 6 29.93 1013 2 3 0.08 2.03
5:34 am 05:34 Cloudy with Heavy Rain 57 13.9 57 13.9 100 100 SSE 7 11 29.93 1013 3 4 0.19 4.83
5:39 am 05:39 Cloudy with Light Rain 57 13.9 57 13.9 100 100 SE 6 9 29.92 1013 4 6 0.20 5.08
5:53 am 05:53 Cloudy 58 14.4 58 14.4 100 100 SSE 9 15 29.91 1013 10 16 0.20 5.08
6:53 am 06:53 Cloudy 61 16.1 61 16.1 100 100 S 8 13 29.91 1013 10 16 0.00 0.03
7:45 am 07:45 Cloudy 62 16.7 62 16.7 100 100 S 7 11 29.90 1012 10 16 0.00 0.03
7:53 am 07:53 Cloudy 62 16.7 62 16.7 100 100 S 8 13 29.89 1012 10 16 0.00 0.03
8:53 am 08:53 Cloudy 64 17.8 63 17.2 96 96 S 6 9 29.89 1012 10 16 0.00 0.00
9:00 am 09:00 Mostly Cloudy 64 17.8 63 17.2 96 96 S 9 15 29.89 1012 10 16 0.00 0.00
9:07 am 09:07 Mostly Cloudy 64 17.8 63 17.2 96 96 S 12 19 29.89 1012 10 16 0.00 0.00
9:53 am 09:53 Mostly Cloudy 65 18.3 64 17.8 97 97 S 6 9 29.88 1012 10 16 0.00 0.00
10:53 am 10:53 Cloudy 66 18.9 64 17.8 93 93 S 10 17 29.86 1011 10 16 0.00 0.00
11:53 am 11:53 Cloudy 68 20 64 17.8 87 87 S 12 19 29.84 1011 10 16 0.00 0.00
12:53 pm 12:53 Cloudy 69 20.6 63 17.2 81 81 SSW 8 13 29.81 1009 10 16 0.00 0.00
1:19 pm 13:19 Cloudy with Heavy Rain 59 15 57 13.9 93 93 W 14 22 29.84 1011 2 2 0.11 2.79
1:25 pm 13:25 Cloudy with Heavy Rain 58 14.4 57 13.9 97 97 WSW 13 20 29.89 1012 1 1 0.38 9.65
1:37 pm 13:37 Cloudy with Heavy Rain 57 13.9 57 13.9 100 100 VRB 3 6 29.87 1011 1 2 0.61 15.49
1:44 pm 13:44 Cloudy with Light Rain 58 14.4 58 14.4 100 100 VRB 5 7 29.86 1011 3 5 0.62 15.75
1:53 pm 13:53 Cloudy with Rain 58 14.4 58 14.4 100 100 WNW 8 13 29.85 1011 4 6 0.64 16.26
2:53 pm 14:53 Cloudy with Light Rain 58 14.4 56 13.3 93 93 W 5 7 29.86 1011 7 11 0.12 3.05
3:53 pm 15:53 Cloudy with Light Rain 58 14.4 57 13.9 97 97 Calm 29.86 1011 10 16 0.05 1.27
4:53 pm 16:53 Cloudy 58 14.4 58 14.4 100 100 SW 7 11 29.90 1013 10 16 0.00 0.03
5:53 pm 17:53 Cloudy with Light Rain 58 14.4 56 13.3 93 93 SW 9 15 29.91 1013 10 16 0.00 0.03
6:25 pm 18:25 Cloudy with Light Rain 57 13.9 56 13.3 96 96 SW 6 9 29.93 1013 10 16 0.01 0.25
6:32 pm 18:32 Cloudy 57 13.9 55 12.8 93 93 WSW 8 13 29.94 1014 10 16 0.01 0.25
6:53 pm 18:53 Cloudy 57 13.9 55 12.8 93 93 WSW 5 7 29.92 1013 10 16 0.01 0.25
7:53 pm 19:53 Mostly Cloudy 56 13.3 54 12.2 93 93 VRB 5 7 29.94 1014 10 16 0.00 0.00
8:53 pm 20:53 Clear 54 12.2 47 8.3 77 77 NW 17 28 29.96 1015 10 16 0.00 0.00
9:53 pm 21:53 Clear 51 10.6 43 6.1 74 74 WNW 12 19 30.00 1016 10 16 0.00 0.00
10:53 pm 22:53 Clear 49 9.4 39 3.9 69 69 NW 15 24 30.04 1017 10 16 0.00 0.00
11:53 pm 23:53 Clear 46 7.8 32 0 58 58 NW 12 19 30.06 1018 10 16 0.00 0.00

Powered by AerisWeather